�N����,����,�~����,�C��,���x,�C��,����,���ϕ���,�ő�u�ԕ���,�ő厞����,���˗�,�I�_���x,�n�����x,�ő啗���N��,DTYPE
"17/08/31","00:10",0.0,21.9,76.8,1002.4,290.8,0.8,1.6,310.8,0.00,17.7,25.0,"00:00:48",1
"17/08/31","00:20",0.0,21.5,78.8,1002.4,282.9,0.8,1.8,309.1,0.00,17.7,25.1,"00:19:28",1
"17/08/31","00:30",0.0,21.5,79.0,1002.4,295.3,1.2,2.1,336.4,0.00,17.7,25.0,"00:28:08",1
"17/08/31","00:40",0.0,21.6,78.9,1002.4,292.7,1.5,2.5,317.3,0.00,17.8,25.0,"00:39:36",1
"17/08/31","00:50",0.0,21.7,78.4,1002.4,282.9,1.1,1.7,309.8,0.00,17.8,25.1,"00:40:32",1
"17/08/31","01:00",0.0,21.3,79.0,1002.4,286.6,1.0,1.8,324.2,0.00,17.6,24.9,"00:54:56",1
"17/08/31","01:10",0.0,20.9,81.1,1002.2,280.7,0.8,2.1,327.3,0.00,17.6,25.1,"01:09:48",1
"17/08/31","01:20",0.0,20.6,82.9,1002.4,324.2,1.2,1.9,325.5,0.00,17.6,24.7,"01:10:02",1
"17/08/31","01:30",0.0,20.6,82.9,1002.9,304.7,1.0,2.0,311.6,0.00,17.6,24.7,"01:20:24",1
"17/08/31","01:40",0.0,20.6,83.8,1002.6,308.2,0.7,1.9,337.1,0.00,17.8,24.6,"01:30:40",1
"17/08/31","01:50",0.0,20.3,84.9,1002.2,310.9,1.0,1.8,338.2,0.00,17.7,24.8,"01:45:36",1
"17/08/31","02:00",0.0,20.1,85.9,1002.6,292.6,0.6,1.8,310.2,0.00,17.7,24.5,"01:52:00",1
"17/08/31","02:10",0.0,19.8,87.1,1002.9,310.2,0.7,1.3,347.1,0.00,17.6,24.5,"02:04:24",1
"17/08/31","02:20",0.0,19.6,88.4,1002.6,320.6,1.2,1.9,332.2,0.00,17.7,24.3,"02:14:24",1
"17/08/31","02:30",0.0,19.5,89.1,1002.2,294.5,0.8,1.7,325.8,0.00,17.7,24.3,"02:20:56",1
"17/08/31","02:40",0.0,19.3,89.8,1002.4,278.4,0.7,1.3,344.6,0.00,17.6,24.5,"02:35:52",1
"17/08/31","02:50",0.0,19.4,90.3,1002.2,325.0,1.0,2.4,326.0,0.00,17.8,24.2,"02:48:08",1
"17/08/31","03:00",0.0,19.5,90.8,1002.2,318.8,1.6,2.8,337.9,0.00,18.0,24.4,"02:52:40",1
"17/08/31","03:10",0.0,19.9,90.5,1002.2,307.8,1.7,3.2,338.2,0.00,18.3,24.1,"03:03:44",1
"17/08/31","03:20",0.0,20.4,88.4,1002.2,310.1,1.5,2.7,339.0,0.00,18.5,24.2,"03:17:04",1
"17/08/31","03:30",0.0,20.7,85.7,1001.9,327.1,2.2,3.6,347.7,0.00,18.3,24.3,"03:26:00",1
"17/08/31","03:40",0.0,20.8,83.9,1001.9,315.4,1.6,5.2,333.8,0.00,18.0,24.3,"03:30:08",1
"17/08/31","03:50",0.0,20.6,83.1,1002.2,311.7,0.7,2.0,333.7,0.00,17.7,24.0,"03:40:08",1
"17/08/31","04:00",0.0,20.4,83.4,1001.9,342.4,1.0,3.3,322.9,0.00,17.5,24.1,"03:56:24",1
"17/08/31","04:10",0.0,20.6,81.6,1001.9,323.9,1.2,5.4,333.4,0.00,17.4,24.2,"04:01:44",1
"17/08/31","04:20",0.0,20.9,80.5,1002.2,311.7,1.1,2.8,342.4,0.00,17.5,23.8,"04:12:00",1
"17/08/31","04:30",0.0,20.8,79.7,1001.9,286.3,0.8,1.6,263.0,0.00,17.2,23.8,"04:27:36",1
"17/08/31","04:40",0.0,20.9,78.0,1001.9,302.3,1.1,2.1,348.7,0.00,17.0,23.8,"04:34:56",1
"17/08/31","04:50",0.0,21.1,76.7,1001.9,294.0,1.6,2.9,318.3,0.00,16.9,24.0,"04:42:56",1
"17/08/31","05:00",0.0,21.0,76.9,1001.9,319.8,1.3,3.4,340.6,0.00,16.8,24.0,"04:51:36",1
"17/08/31","05:10",0.0,20.9,76.7,1001.5,277.0,1.1,2.1,317.2,0.00,16.7,23.6,"05:07:36",1
"17/08/31","05:20",0.0,20.9,76.4,1001.5,275.3,1.1,1.8,240.2,0.00,16.6,23.7,"05:17:12",1
"17/08/31","05:30",0.0,21.2,74.4,1001.7,289.7,1.3,2.9,340.8,0.00,16.5,23.7,"05:28:24",1
"17/08/31","05:40",0.0,21.4,71.8,1001.5,328.5,2.0,3.6,333.2,0.00,16.1,23.7,"05:39:04",1
"17/08/31","05:50",0.0,21.9,68.5,1001.7,315.8,2.1,3.9,336.5,0.00,15.9,23.9,"05:41:12",1
"17/08/31","06:00",0.0,22.3,66.2,1001.9,327.6,2.0,3.5,8.3,0.00,15.7,23.6,"05:58:08",1
"17/08/31","06:10",0.0,22.4,65.7,1001.7,318.6,1.7,3.7,342.6,0.00,15.7,23.7,"06:01:52",1
"17/08/31","06:20",0.0,22.0,68.4,1001.5,288.6,1.0,2.1,342.4,0.00,16.0,23.6,"06:12:08",1
"17/08/31","06:30",0.0,21.3,72.6,1001.7,317.6,1.0,2.0,338.6,0.00,16.2,23.7,"06:21:28",1
"17/08/31","06:40",0.0,21.7,73.7,1001.2,326.8,0.8,1.7,334.1,0.03,16.8,23.6,"06:33:44",1
"17/08/31","06:50",0.0,22.5,73.1,1001.0,327.4,0.7,1.2,335.3,0.04,17.5,23.7,"06:42:00",1
"17/08/31","07:00",0.0,23.6,68.0,1000.8,341.8,0.6,1.6,332.9,0.06,17.4,23.7,"06:52:48",1
"17/08/31","07:10",0.0,24.9,62.4,1000.8,123.1,0.1,0.9,0.3,0.09,17.3,24.0,"07:06:00",1
"17/08/31","07:20",0.0,26.1,62.0,1000.8,194.9,0.1,0.8,42.5,0.11,18.3,24.0,"07:19:20",1
"17/08/31","07:30",0.0,26.1,61.0,1000.8,354.5,0.5,1.1,358.9,0.14,18.0,24.2,"07:20:48",1
"17/08/31","07:40",0.0,26.3,53.9,1000.5,4.6,0.5,1.8,351.6,0.14,16.3,24.2,"07:34:00",1
"17/08/31","07:50",0.0,26.9,50.6,1000.5,11.9,1.0,2.2,343.4,0.26,15.8,24.6,"07:40:02",1
"17/08/31","08:00",0.0,25.9,51.0,1000.5,341.6,1.6,4.0,339.1,0.17,15.0,24.7,"07:58:08",1
"17/08/31","08:10",0.0,25.2,52.2,1000.5,328.6,2.1,4.0,324.9,0.11,14.8,24.7,"08:03:04",1
"17/08/31","08:20",0.0,25.0,54.4,1001.0,330.3,2.1,3.9,338.2,0.11,15.2,24.5,"08:13:28",1
"17/08/31","08:30",0.0,25.1,53.2,1000.5,327.9,2.2,4.9,328.3,0.12,15.0,24.7,"08:21:12",1
"17/08/31","08:40",0.0,25.4,54.3,1000.3,326.0,2.0,4.3,323.7,0.15,15.6,24.8,"08:38:24",1
"17/08/31","08:50",0.0,26.1,49.9,1000.5,348.6,1.8,4.2,348.1,0.21,14.9,24.9,"08:44:08",1
"17/08/31","09:00",0.0,26.3,47.9,1000.8,344.5,1.5,3.9,341.1,0.18,14.4,25.2,"08:51:04",1
"17/08/31","09:10",0.0,26.8,49.4,1000.5,334.3,1.0,2.7,339.2,0.20,15.4,25.2,"09:05:04",1
"17/08/31","09:20",0.0,26.8,51.2,1000.5,348.4,1.0,3.5,345.8,0.21,15.9,25.2,"09:13:04",1
"17/08/31","09:30",0.0,26.7,55.4,999.8,335.6,1.3,3.4,315.2,0.21,17.1,25.4,"09:22:32",1
"17/08/31","09:40",0.0,27.2,54.9,1000.0,348.2,0.8,2.8,341.6,0.25,17.4,25.5,"09:30:56",1
"17/08/31","09:50",0.0,28.5,52.4,999.6,350.4,1.3,3.1,80.2,0.46,17.9,25.7,"09:44:48",1
"17/08/31","10:00",0.0,29.0,52.2,1000.0,354.4,1.8,4.3,356.9,0.60,18.3,26.2,"09:58:08",1
"17/08/31","10:10",0.0,27.9,55.2,1000.0,339.0,1.7,3.3,353.9,0.32,18.1,26.4,"10:02:08",1
"17/08/31","10:20",0.0,27.0,55.3,999.6,340.4,2.3,5.2,345.0,0.26,17.3,26.5,"10:12:24",1
"17/08/31","10:30",0.0,27.8,53.6,999.8,339.3,1.8,5.2,334.6,0.36,17.6,26.6,"10:20:56",1
"17/08/31","10:40",0.0,28.0,54.4,999.8,340.1,1.6,3.4,343.0,0.40,18.0,26.8,"10:34:16",1
"17/08/31","10:50",0.0,29.3,51.7,999.8,354.1,0.8,2.4,23.5,0.42,18.4,27.1,"10:42:56",1
"17/08/31","11:00",0.0,29.3,51.5,999.8,336.5,1.8,5.9,322.8,0.53,18.3,27.6,"10:56:32",1
"17/08/31","11:10",0.0,29.4,49.4,999.8,334.5,2.0,5.2,11.2,0.55,17.7,27.6,"11:05:20",1
"17/08/31","11:20",0.0,29.6,49.6,999.6,335.8,2.6,7.4,343.6,0.59,18.0,28.0,"11:14:16",1
"17/08/31","11:30",0.0,29.8,50.5,999.6,334.5,2.7,5.5,327.3,0.57,18.5,28.4,"11:25:36",1
"17/08/31","11:40",0.0,29.1,49.6,999.6,351.4,2.7,8.7,345.1,0.51,17.5,28.7,"11:33:44",1
"17/08/31","11:50",0.0,29.1,50.8,999.6,341.4,3.0,7.1,345.3,0.56,17.9,28.9,"11:47:04",1
"17/08/31","12:00",0.0,29.1,47.6,999.1,334.0,3.4,7.0,321.5,0.56,16.9,28.9,"11:54:48",1
"17/08/31","12:10",0.0,29.2,48.8,998.9,342.9,3.4,6.6,333.8,0.55,17.4,29.2,"12:02:16",1
"17/08/31","12:20",0.0,29.3,46.5,998.6,342.1,3.5,6.7,327.7,0.55,16.7,29.3,"12:14:08",1
"17/08/31","12:30",0.0,29.4,49.1,998.4,340.0,3.5,5.9,349.8,0.55,17.6,29.3,"12:21:20",1
"17/08/31","12:40",0.0,29.6,47.0,998.6,353.8,3.2,6.3,330.2,0.55,17.1,29.7,"12:33:28",1
"17/08/31","12:50",0.0,29.4,46.6,998.4,351.0,3.5,7.2,347.7,0.55,16.8,29.9,"12:47:20",1
"17/08/31","13:00",0.0,29.5,48.1,998.2,343.1,3.5,7.5,338.6,0.54,17.4,29.8,"12:54:32",1
"17/08/31","13:10",0.0,29.7,45.2,997.9,352.6,3.2,9.4,341.4,0.53,16.6,30.1,"13:04:16",1
"17/08/31","13:20",0.0,29.5,41.3,997.7,357.1,3.2,7.0,352.6,0.53,15.0,30.3,"13:18:40",1
"17/08/31","13:30",0.0,29.6,42.6,997.9,0.8,2.8,7.0,332.8,0.52,15.6,30.3,"13:21:44",1
"17/08/31","13:40",0.0,29.4,43.0,997.9,344.4,3.4,7.1,339.0,0.51,15.6,30.2,"13:32:48",1
"17/08/31","13:50",0.0,29.3,44.1,997.7,344.7,3.2,8.9,330.6,0.50,15.9,30.4,"13:47:20",1
"17/08/31","14:00",0.0,29.9,43.1,997.4,349.2,2.7,6.8,327.8,0.48,16.0,30.4,"13:56:40",1
"17/08/31","14:10",0.0,29.7,39.9,997.7,347.6,3.0,6.7,356.0,0.47,14.7,30.5,"14:02:24",1
"17/08/31","14:20",0.0,29.6,37.5,997.9,341.7,2.8,6.5,316.9,0.46,13.6,30.4,"14:18:16",1
"17/08/31","14:30",0.0,29.5,38.1,997.4,348.6,3.0,7.1,339.7,0.44,13.8,30.3,"14:28:24",1
"17/08/31","14:40",0.0,29.5,40.4,997.4,346.9,2.7,6.2,2.3,0.42,14.7,30.3,"14:35:12",1
"17/08/31","14:50",0.0,29.3,41.2,997.2,354.9,2.8,7.7,333.7,0.40,14.8,30.2,"14:42:32",1
"17/08/31","15:00",0.0,29.7,40.9,997.4,320.2,1.6,4.9,48.7,0.38,15.1,30.1,"14:50:08",1
"17/08/31","15:10",0.0,29.5,40.6,997.4,348.7,2.0,5.8,345.9,0.36,14.8,30.2,"15:00:02",1
"17/08/31","15:20",0.0,28.8,42.3,997.4,340.7,3.1,8.3,324.7,0.34,14.8,30.1,"15:14:48",1
"17/08/31","15:30",0.0,28.8,44.0,997.2,343.7,3.0,5.9,339.3,0.32,15.4,29.9,"15:28:56",1
"17/08/31","15:40",0.0,28.7,45.1,996.7,339.6,3.7,8.3,335.9,0.30,15.7,30.0,"15:36:16",1
"17/08/31","15:50",0.0,28.6,44.2,996.7,339.8,3.4,7.2,17.2,0.27,15.3,29.6,"15:46:56",1
"17/08/31","16:00",0.0,28.7,45.1,996.5,341.8,2.6,6.8,349.8,0.25,15.7,29.7,"15:53:12",1
"17/08/31","16:10",0.0,28.4,47.1,996.3,344.0,3.6,8.5,330.7,0.22,16.1,29.6,"16:01:36",1
"17/08/31","16:20",0.0,28.4,47.6,996.5,336.5,2.8,6.6,332.5,0.20,16.2,29.6,"16:13:44",1
"17/08/31","16:30",0.0,28.1,47.3,996.7,338.1,3.1,6.0,28.3,0.17,15.9,29.1,"16:26:24",1
"17/08/31","16:40",0.0,27.9,48.8,996.7,345.9,3.4,7.7,349.8,0.15,16.2,29.2,"16:37:28",1
"17/08/31","16:50",0.0,27.6,49.4,997.0,343.3,3.1,7.7,342.6,0.12,16.1,28.9,"16:46:00",1
"17/08/31","17:00",0.0,27.4,51.0,997.0,343.7,3.0,6.2,345.2,0.10,16.4,29.0,"16:59:44",1
"17/08/31","17:10",0.0,27.1,51.0,997.4,337.0,3.0,6.7,322.9,0.07,16.1,28.7,"17:09:52",1
"17/08/31","17:20",0.0,26.9,52.9,997.4,342.0,2.6,5.1,333.1,0.05,16.5,28.7,"17:11:36",1
"17/08/31","17:30",0.0,26.5,53.9,997.4,339.4,2.5,4.8,320.7,0.04,16.5,28.2,"17:22:00",1
"17/08/31","17:40",0.0,26.2,56.5,997.4,332.4,2.7,6.5,325.1,0.02,16.9,28.2,"17:36:08",1
"17/08/31","17:50",0.0,25.8,58.7,997.4,337.9,1.6,4.3,354.2,0.00,17.1,28.2,"17:45:28",1
"17/08/31","18:00",0.0,25.2,60.5,997.4,342.0,1.7,4.1,17.6,0.00,17.1,28.0,"17:57:04",1
"17/08/31","18:10",0.0,24.9,61.8,997.9,336.0,1.1,3.2,352.5,0.00,17.1,27.7,"18:08:08",1
"17/08/31","18:20",0.0,24.5,62.8,997.9,315.3,1.2,3.1,301.5,0.00,17.0,27.6,"18:15:52",1
"17/08/31","18:30",0.0,24.2,64.1,997.7,305.5,1.2,2.7,326.6,0.00,17.0,27.5,"18:23:12",1
"17/08/31","18:40",0.0,24.1,64.6,997.9,326.4,1.8,3.7,335.7,0.00,17.1,27.3,"18:38:24",1
"17/08/31","18:50",0.0,24.0,65.6,998.6,313.7,1.7,3.5,338.7,0.00,17.2,27.0,"18:41:44",1
"17/08/31","19:00",0.0,23.9,66.4,998.4,336.0,1.8,3.5,321.5,0.00,17.3,27.2,"18:52:40",1
"17/08/31","19:10",0.0,23.7,67.1,998.9,322.8,1.6,3.2,352.8,0.00,17.3,26.9,"19:04:00",1
"17/08/31","19:20",0.0,23.6,68.0,998.6,328.1,1.8,3.2,321.7,0.00,17.4,26.8,"19:10:16",1
"17/08/31","19:30",0.0,23.5,68.0,998.6,312.5,2.1,3.7,333.0,0.00,17.3,26.8,"19:27:12",1
"17/08/31","19:40",0.0,23.5,68.6,998.9,300.4,1.3,2.6,320.6,0.00,17.4,26.5,"19:30:56",1
"17/08/31","19:50",0.0,23.4,69.1,999.1,311.5,1.7,3.5,332.3,0.00,17.5,26.4,"19:42:16",1
"17/08/31","20:00",0.0,23.4,69.7,999.1,313.5,1.8,3.4,339.4,0.00,17.6,26.4,"19:54:16",1
"17/08/31","20:10",0.0,23.3,69.9,999.3,336.3,2.1,4.0,315.6,0.00,17.5,26.3,"20:01:12",1
"17/08/31","20:20",0.0,23.2,70.1,999.6,313.5,1.2,2.4,349.7,0.00,17.5,26.0,"20:18:24",1
"17/08/31","20:30",0.0,23.1,70.5,999.6,304.3,1.3,2.6,326.8,0.00,17.5,26.0,"20:24:32",1
"17/08/31","20:40",0.0,22.9,71.7,999.3,324.9,1.7,3.3,329.8,0.00,17.6,26.1,"20:33:28",1
"17/08/31","20:50",0.0,22.6,72.5,999.6,321.9,1.1,2.2,341.1,0.00,17.4,25.8,"20:40:16",1
"17/08/31","21:00",0.0,22.7,72.1,999.8,332.1,2.0,3.4,48.0,0.00,17.5,25.6,"20:58:48",1
"17/08/31","21:10",0.0,22.9,71.9,999.8,302.9,1.5,2.7,317.9,0.00,17.6,25.6,"21:03:52",1
"17/08/31","21:20",0.0,22.5,73.3,999.8,308.8,1.1,2.5,330.5,0.00,17.5,25.8,"21:11:12",1
"17/08/31","21:30",0.0,22.0,75.1,999.8,306.1,1.0,1.9,337.0,0.00,17.4,25.6,"21:20:08",1
"17/08/31","21:40",0.0,21.7,76.6,999.8,304.7,1.1,2.1,334.3,0.00,17.5,25.2,"21:32:08",1
"17/08/31","21:50",0.0,22.0,76.7,1000.3,325.4,1.5,4.0,335.5,0.00,17.8,25.2,"21:42:32",1
"17/08/31","22:00",0.0,21.5,78.0,999.8,308.5,1.2,2.1,333.0,0.00,17.5,25.3,"21:54:32",1
"17/08/31","22:10",0.0,21.8,76.9,999.8,313.2,1.7,3.2,307.6,0.00,17.6,25.2,"22:03:52",1
"17/08/31","22:20",0.0,21.9,75.9,999.8,308.7,1.3,2.7,331.9,0.00,17.5,25.0,"22:19:52",1
"17/08/31","22:30",0.0,22.1,75.1,1000.3,317.1,1.7,3.6,317.7,0.00,17.5,25.1,"22:24:56",1
"17/08/31","22:40",0.0,22.1,74.1,1000.3,308.6,1.3,2.9,318.7,0.00,17.3,25.1,"22:36:40",1
"17/08/31","22:50",0.0,22.0,75.0,999.8,317.5,1.2,2.8,324.9,0.00,17.4,24.9,"22:41:12",1
"17/08/31","23:00",0.0,21.2,78.0,1000.0,299.5,1.1,2.0,318.7,0.00,17.3,24.8,"22:50:08",1
"17/08/31","23:10",0.0,20.6,79.9,1000.0,330.5,1.0,2.2,316.1,0.00,17.1,24.8,"23:04:48",1
"17/08/31","23:20",0.0,20.2,81.8,1000.0,306.4,1.1,1.9,324.0,0.00,17.0,24.7,"23:11:44",1
"17/08/31","23:30",0.0,19.7,83.4,1000.5,328.7,0.6,1.7,332.6,0.00,16.8,24.5,"23:26:32",1
"17/08/31","23:40",0.0,19.8,84.1,1000.3,319.8,1.2,2.6,339.4,0.00,17.1,24.5,"23:31:28",1
"17/08/31","23:50",0.0,20.0,83.7,1000.3,314.8,1.1,2.1,328.8,0.00,17.2,24.4,"23:47:12",1
"17/08/31","24:00",0.0,20.2,83.1,1000.3,318.1,1.1,2.1,358.9,0.00,17.3,24.0,"23:58:40",1
